Simultaneous Nadir Overpasses (SNOs) Predictions

Prediction of SNOs between NOAA-20 and AQUA Satellite Orbit:

Table of predicted SNOs for the next 14.0 days since TLE Epoch: 5/13/2023
Index Date (NOAA-20) Time (NOAA-20) Lat,Lon (NOAA-20) SZA (NOAA-20 ) Date (AQUA) Time (AQUA) Lat,Lon (AQUA) SZA (AQUA ) Distance(km) Time Diff (sec)
1 05/14/2023 13:19:21 -80.13, 63.29 107.34 05/14/2023 13:20:26 -80.13, 63.33 107.39 0.79 65
2 05/14/2023 14:10:01 80.26,-127.94 72.39 05/14/2023 14:09:46 80.27,-127.78 72.38 3.10 15
3 05/17/2023 03:54:46 -80.14,-155.50 107.95 05/17/2023 03:55:38 -80.14,-155.36 108.01 2.68 52
4 05/17/2023 04:45:23 80.34, 14.22 71.62 05/17/2023 04:44:56 80.34, 14.14 71.65 1.47 27
5 05/19/2023 18:30:07 -80.25, -13.10 108.74 05/19/2023 18:30:46 -80.24, -13.21 108.75 2.16 39
6 05/19/2023 19:20:48 80.34, 155.36 71.06 05/19/2023 19:20:07 80.34, 155.37 71.08 0.34 41
7 05/22/2023 09:05:31 -80.27, 128.32 109.31 05/22/2023 09:05:55 -80.27, 128.28 109.31 0.85 24
8 05/22/2023 09:56:12 80.36, -63.23 70.49 05/22/2023 09:55:16 80.36, -63.15 70.52 1.55 56
9 05/24/2023 23:40:54 -80.29, -90.31 109.82 05/24/2023 23:41:02 -80.29, -90.30 109.83 0.18 8



Historial Predications of SNOs between NOAA-20 and AQUA
